Flag for U.S.A. Weather past 2 weeks in Scranton, Pennsylvania, U.S.A.

Now
67 °F

Sunny.


Feels Like: 67 °F
Forecast: 67 / 87 °F
Wind: 3 mph from East

Location: Barre - Scranton - Wilkes-Barre / Scranton International Airport

Current Time: Jul 22, 2014 at 8:06:48 AM

Latest Report: Jul 22, 2014 at 6:54 AM


Visibility: 10 mi

Pressure: 30.17 "Hg

Humidity: 85%

Dew point: 62 °F

Location of ScrantonLocation

Historic Weather in Scranton — Graph

°F

Scranton temperature yesterday

Maximum temperature yesterday: 83 °F (at 3:54 PM)
Minimum temperature yesterday: 62 °F (at 4:54 AM)
Average temperature yesterday: 73 °F

Past Weeks' High & Low Weather Summary

 TemperatureHumidityPressure
High88 °F (Jul 7, 3:54 PM)93% (Jul 8, 12:54 AM)30.26 "Hg (Jul 8, 12:54 AM)
Low53 °F (Jul 18, 5:54 AM)36% (Jul 18, 2:54 PM)29.62 "Hg (Jul 8, 6:54 PM)
Average72 °F68%30.00 "Hg
* Reported Jul 7 6:54 AM — Jul 22 6:54 AM, Scranton, Weather by CustomWeather, © 2014

Note: Actual official high and low records may vary slightly from our data, if they occured in-between our weather recording intervals... More about our weather records

Advertising

Scranton weather history for previous 24 hours

 ConditionsComfort  
Time TempWeatherWind HumidityBarometerVisibility
6:54 AM
Jul 22
67 °FSunny.3 mph85%30.17 "Hg10 mi
5:54 AM65 °FPassing clouds.No wind91%30.16 "Hg9 mi
4:54 AM66 °FPassing clouds.5 mph87%30.15 "Hg9 mi
3:54 AM66 °FPassing clouds.5 mph87%30.15 "Hg10 mi
2:54 AM66 °FPassing clouds.3 mph87%30.14 "Hg10 mi
1:54 AM66 °FClear.3 mph87%30.15 "Hg10 mi
12:54 AM67 °FClear.No wind87%30.16 "Hg10 mi
11:54 PM
Jul 21
71 °FClear.No wind76%30.15 "Hg10 mi
10:54 PM72 °FClear.No wind76%30.15 "Hg10 mi
9:54 PM73 °FClear.No wind74%30.16 "Hg10 mi
8:54 PM76 °FPartly sunny.No wind67%30.14 "Hg10 mi
7:54 PM79 °FPartly sunny.6 mph58%30.13 "Hg10 mi
6:54 PM81 °FPartly sunny.10 mph54%30.13 "Hg10 mi
5:54 PM82 °FMostly cloudy.8 mph51%30.14 "Hg10 mi
4:54 PM83 °FSunny.8 mph48%30.13 "Hg10 mi
3:54 PM83 °FPartly sunny.No wind46%30.12 "Hg10 mi
2:54 PM81 °FBroken clouds.3 mph51%30.15 "Hg10 mi
1:54 PM82 °FBroken clouds.6 mph48%30.16 "Hg10 mi
12:54 PM82 °FPartly sunny.No wind49%30.16 "Hg10 mi
11:54 AM79 °FBroken clouds.6 mph58%30.18 "Hg10 mi
10:54 AM77 °FSunny.No wind62%30.19 "Hg10 mi
9:54 AM73 °FMostly cloudy.No wind71%30.20 "Hg10 mi
8:54 AM71 °FPassing clouds.5 mph73%30.20 "Hg10 mi
Weather by CustomWeather, © 2014

See weather overviewHow to use our weather pages